• In Uzbekistan
  • List of Countries
  • For 7 days
  • Water Temperature
  • Satellite Maps
  • Weather Map
  • Weather Widgets
  • user-avatar
    Login

    Hourly Weather Vólosz

    Today, 19 February, Monday

    Time Temperature Precipitation Wind Pressure Humidity
    00:00 +8°C° 0 mm 1 mps 722 mmHg 89%
    01:00 +8°C° 0 mm 1 mps 722 mmHg 89%
    02:00 +8°C° 0 mm 1 mps 722 mmHg 89%
    03:00 +8°C° 0.2 mm 1 mps 721 mmHg 90%
    04:00 +7°C° 0.2 mm 2 mps 721 mmHg 91%
    05:00 +7°C° 0.2 mm 2 mps 721 mmHg 91%
    06:00 +7°C° 0.5 mm 2 mps 721 mmHg 92%
    07:00 +7°C° 0.5 mm 2 mps 721 mmHg 93%
    08:00 +7°C° 0.5 mm 2 mps 721 mmHg 93%
    09:00 +7°C° 0.9 mm 2 mps 721 mmHg 92%
    10:00 +7°C° 0.9 mm 3 mps 721 mmHg 90%
    11:00 +8°C° 0.9 mm 3 mps 721 mmHg 88%
    12:00 +8°C° 0.7 mm 3 mps 721 mmHg 88%
    13:00 +8°C° 0.7 mm 3 mps 721 mmHg 87%
    14:00 +8°C° 0.7 mm 3 mps 721 mmHg 87%
    15:00 +7°C° 0.4 mm 4 mps 721 mmHg 87%
    16:00 +7°C° 0.4 mm 4 mps 721 mmHg 88%
    17:00 +6°C° 0.4 mm 4 mps 720 mmHg 88%
    18:00 +6°C° 0.2 mm 4 mps 720 mmHg 89%
    19:00 +6°C° 0.2 mm 4 mps 721 mmHg 89%
    20:00 +6°C° 0.2 mm 4 mps 721 mmHg 89%
    21:00 +6°C° 0.2 mm 4 mps 721 mmHg 89%
    22:00 +6°C° 0.2 mm 4 mps 721 mmHg 89%
    23:00 +6°C° 0.2 mm 4 mps 721 mmHg 89%

    Tomorrow, 20 February, Tuesday

    Time Temperature Precipitation Wind Pressure Humidity
    00:00 +6°C° 0.3 mm 4 mps 721 mmHg 89%
    01:00 +6°C° 0.3 mm 4 mps 721 mmHg 90%
    02:00 +6°C° 0.3 mm 4 mps 720 mmHg 90%
    03:00 +5°C° 0.6 mm 4 mps 720 mmHg 90%
    04:00 +5°C° 0.6 mm 4 mps 720 mmHg 91%
    05:00 +5°C° 0.6 mm 4 mps 720 mmHg 91%
    06:00 +5°C° 0.7 mm 4 mps 720 mmHg 92%
    07:00 +5°C° 0.7 mm 4 mps 720 mmHg 92%
    08:00 +5°C° 0.7 mm 4 mps 720 mmHg 92%
    09:00 +6°C° 0.4 mm 4 mps 720 mmHg 91%
    10:00 +6°C° 0.4 mm 4 mps 720 mmHg 89%
    11:00 +7°C° 0.4 mm 4 mps 720 mmHg 87%
    12:00 +7°C° 0.5 mm 4 mps 720 mmHg 87%
    13:00 +7°C° 0.5 mm 4 mps 719 mmHg 87%
    14:00 +7°C° 0.5 mm 4 mps 719 mmHg 87%
    15:00 +7°C° 0.8 mm 4 mps 718 mmHg 88%
    16:00 +7°C° 0.8 mm 4 mps 718 mmHg 89%
    17:00 +7°C° 0.8 mm 4 mps 718 mmHg 90%
    18:00 +7°C° 0.6 mm 4 mps 718 mmHg 92%
    19:00 +7°C° 0.6 mm 4 mps 718 mmHg 93%
    20:00 +6°C° 0.6 mm 4 mps 718 mmHg 94%
    21:00 +7°C° 0.9 mm 4 mps 718 mmHg 94%
    22:00 +7°C° 0.9 mm 4 mps 718 mmHg 94%
    23:00 +7°C° 0.9 mm 4 mps 718 mmHg 94%

    Day after tomorrow, 21 February, Wednesday

    Time Temperature Precipitation Wind Pressure Humidity
    00:00 +7°C° 1.1 mm 3 mps 718 mmHg 94%
    01:00 +7°C° 1.1 mm 3 mps 718 mmHg 94%
    02:00 +7°C° 1.1 mm 3 mps 717 mmHg 94%
    03:00 +7°C° 0.9 mm 3 mps 717 mmHg 94%
    04:00 +7°C° 0.9 mm 2 mps 717 mmHg 94%
    05:00 +7°C° 0.9 mm 2 mps 717 mmHg 94%
    06:00 +7°C° 0.9 mm 2 mps 717 mmHg 94%
    07:00 +7°C° 0.9 mm 3 mps 717 mmHg 94%
    08:00 +7°C° 0.9 mm 3 mps 717 mmHg 94%
    09:00 +8°C° 0.7 mm 3 mps 717 mmHg 91%
    10:00 +8°C° 0.7 mm 4 mps 717 mmHg 88%
    11:00 +8°C° 0.7 mm 4 mps 717 mmHg 85%
    12:00 +9°C° 0.7 mm 5 mps 717 mmHg 84%
    13:00 +9°C° 0.7 mm 5 mps 717 mmHg 83%
    14:00 +9°C° 0.7 mm 5 mps 716 mmHg 82%
    15:00 +9°C° 0.8 mm 5 mps 716 mmHg 84%
    16:00 +9°C° 0.8 mm 5 mps 716 mmHg 85%
    17:00 +9°C° 0.8 mm 5 mps 716 mmHg 87%
    18:00 +8°C° 1 mm 5 mps 716 mmHg 89%
    19:00 +8°C° 1 mm 5 mps 716 mmHg 91%
    20:00 +8°C° 1 mm 5 mps 716 mmHg 93%
    21:00 +8°C° 1.4 mm 5 mps 716 mmHg 94%
    22:00 +8°C° 1.4 mm 5 mps 717 mmHg 94%
    23:00 +8°C° 1.4 mm 5 mps 717 mmHg 94%

    22 February, Thursday

    Time Temperature Precipitation Wind Pressure Humidity
    00:00 +8°C° 1 mm 5 mps 716 mmHg 94%
    01:00 +8°C° 1 mm 5 mps 716 mmHg 94%
    02:00 +8°C° 1 mm 5 mps 716 mmHg 94%
    03:00 +8°C° 0.9 mm 5 mps 716 mmHg 94%
    04:00 +8°C° 0.9 mm 4 mps 716 mmHg 94%
    05:00 +8°C° 0.9 mm 4 mps 716 mmHg 95%
    06:00 +8°C° 1.1 mm 4 mps 716 mmHg 94%
    07:00 +8°C° 1.1 mm 4 mps 716 mmHg 94%
    08:00 +8°C° 1.1 mm 4 mps 716 mmHg 94%
    09:00 +8°C° 1.1 mm 4 mps 716 mmHg 90%
    10:00 +10°C° 1.1 mm 4 mps 717 mmHg 87%
    11:00 +11°C° 1.1 mm 4 mps 717 mmHg 83%
    12:00 +11°C° 1.1 mm 4 mps 717 mmHg 82%
    13:00 +11°C° 1.1 mm 4 mps 716 mmHg 81%
    14:00 +12°C° 1.1 mm 4 mps 716 mmHg 80%
    15:00 +11°C° 0.9 mm 4 mps 716 mmHg 83%
    16:00 +10°C° 0.9 mm 5 mps 716 mmHg 85%
    17:00 +9°C° 0.9 mm 5 mps 716 mmHg 88%
    18:00 +10°C° 1.2 mm 4 mps 716 mmHg 89%
    19:00 +8°C° 1.2 mm 4 mps 717 mmHg 91%
    20:00 +8°C° 1.2 mm 4 mps 717 mmHg 93%
    21:00 +8°C° 2 mm 4 mps 717 mmHg 93%
    22:00 +8°C° 2 mm 4 mps 717 mmHg 93%
    23:00 +8°C° 2 mm 4 mps 717 mmHg 94%

    23 February, Friday

    Time Temperature Precipitation Wind Pressure Humidity
    00:00 +8°C° 1.8 mm 4 mps 717 mmHg 94%
    01:00 +8°C° 1.8 mm 3 mps 717 mmHg 94%
    02:00 +8°C° 1.8 mm 3 mps 717 mmHg 94%
    03:00 +8°C° 1 mm 3 mps 717 mmHg 94%
    04:00 +8°C° 1 mm 3 mps 716 mmHg 94%
    05:00 +8°C° 1 mm 3 mps 716 mmHg 94%
    06:00 +8°C° 0.5 mm 3 mps 716 mmHg 94%
    07:00 +8°C° 0.5 mm 2 mps 716 mmHg 94%
    08:00 +8°C° 0.5 mm 2 mps 716 mmHg 93%
    09:00 +9°C° 0.2 mm 2 mps 716 mmHg 90%
    10:00 +10°C° 0.2 mm 2 mps 717 mmHg 87%
    11:00 +12°C° 0.2 mm 2 mps 717 mmHg 84%
    12:00 +12°C° 0.1 mm 2 mps 716 mmHg 81%
    13:00 +13°C° 0.1 mm 2 mps 716 mmHg 78%
    14:00 +14°C° 0.1 mm 2 mps 716 mmHg 76%
    15:00 +14°C° 0 mm 2 mps 716 mmHg 76%
    16:00 +14°C° 0 mm 2 mps 716 mmHg 76%
    17:00 +14°C° 0 mm 2 mps 716 mmHg 76%
    18:00 +13°C° 0 mm 2 mps 715 mmHg 79%
    19:00 +11°C° 0 mm 3 mps 715 mmHg 83%
    20:00 +10°C° 0 mm 3 mps 715 mmHg 86%
    21:00 +9°C° 0.1 mm 3 mps 715 mmHg 86%
    22:00 +8°C° 0.1 mm 4 mps 715 mmHg 86%
    23:00 +8°C° 0.1 mm 4 mps 715 mmHg 86%

    24 February, Saturday

    Time Temperature Precipitation Wind Pressure Humidity
    00:00 +8°C° 0.1 mm 4 mps 714 mmHg 86%
    01:00 +8°C° 0.1 mm 4 mps 714 mmHg 85%
    02:00 +8°C° 0.1 mm 4 mps 714 mmHg 84%
    03:00 +8°C° 0 mm 4 mps 714 mmHg 84%
    04:00 +7°C° 0 mm 4 mps 713 mmHg 83%
    05:00 +8°C° 0 mm 3 mps 713 mmHg 83%
    06:00 +8°C° 0 mm 3 mps 714 mmHg 82%
    07:00 +8°C° 0 mm 3 mps 714 mmHg 82%
    08:00 +8°C° 0 mm 3 mps 714 mmHg 81%
    09:00 +8°C° 0 mm 4 mps 714 mmHg 73%
    10:00 +11°C° 0 mm 4 mps 714 mmHg 65%
    11:00 +12°C° 0 mm 5 mps 715 mmHg 57%
    12:00 +13°C° 0 mm 5 mps 714 mmHg 55%
    13:00 +13°C° 0 mm 5 mps 714 mmHg 52%
    14:00 +14°C° 0 mm 5 mps 714 mmHg 50%
    15:00 +13°C° 0 mm 5 mps 714 mmHg 53%
    16:00 +13°C° 0 mm 5 mps 714 mmHg 55%
    17:00 +12°C° 0 mm 4 mps 713 mmHg 58%
    18:00 +11°C° 0 mm 4 mps 714 mmHg 60%
    19:00 +9°C° 0 mm 5 mps 714 mmHg 62%
    20:00 +7°C° 0 mm 5 mps 714 mmHg 64%
    21:00 +7°C° 0 mm 5 mps 715 mmHg 65%
    22:00 +7°C° 0 mm 4 mps 715 mmHg 66%
    23:00 +6°C° 0 mm 4 mps 715 mmHg 68%
    Show more